TimePST,TemperatureF,Dew PointF,Humidity,Sea Level PressureIn,VisibilityMPH,Wind Direction,Wind SpeedMPH,Gust SpeedMPH,PrecipitationIn,Events,Conditions,WindDirDegrees,DateUTC
12:15 AM,41.0,35.6,81,30.19,10.0,Calm,Calm,-,N/A,,Clear,0,2013-01-18 08:15:00
12:35 AM,41.0,33.8,76,30.20,10.0,Calm,Calm,-,N/A,,Clear,0,2013-01-18 08:35:00
12:55 AM,41.0,33.8,76,30.20,10.0,Calm,Calm,-,N/A,,Clear,0,2013-01-18 08:55:00
1:15 AM,41.0,33.8,76,30.19,10.0,Calm,Calm,-,N/A,,Clear,0,2013-01-18 09:15:00
1:35 AM,41.0,33.8,76,30.19,10.0,Calm,Calm,-,N/A,,Clear,0,2013-01-18 09:35:00
1:55 AM,41.0,33.8,76,30.19,10.0,Calm,Calm,-,N/A,,Clear,0,2013-01-18 09:55:00
2:15 AM,41.0,33.8,76,30.19,10.0,Calm,Calm,-,N/A,,Clear,0,2013-01-18 10:15:00
2:35 AM,39.2,35.6,87,30.19,10.0,Calm,Calm,-,N/A,,Clear,0,2013-01-18 10:35:00
2:55 AM,39.2,33.8,81,30.20,10.0,Calm,Calm,-,N/A,,Clear,0,2013-01-18 10:55:00
3:15 AM,39.2,33.8,81,30.20,10.0,Calm,Calm,-,N/A,,Clear,0,2013-01-18 11:15:00
3:35 AM,39.2,33.8,81,30.19,10.0,Calm,Calm,-,N/A,,Clear,0,2013-01-18 11:35:00
3:55 AM,39.2,33.8,81,30.19,10.0,Calm,Calm,-,N/A,,Clear,0,2013-01-18 11:55:00
4:15 AM,39.2,33.8,81,30.19,10.0,Calm,Calm,-,N/A,,Clear,0,2013-01-18 12:15:00
4:35 AM,39.2,33.8,81,30.19,10.0,Calm,Calm,-,N/A,,Clear,0,2013-01-18 12:35:00
4:55 AM,39.2,33.8,81,30.19,10.0,Calm,Calm,-,N/A,,Clear,0,2013-01-18 12:55:00
5:15 AM,39.2,32.0,75,30.19,10.0,Calm,Calm,-,N/A,,Clear,0,2013-01-18 13:15:00
5:35 AM,37.4,32.0,81,30.19,10.0,Calm,Calm,-,N/A,,Clear,0,2013-01-18 13:35:00
5:55 AM,37.4,32.0,81,30.19,10.0,Calm,Calm,-,N/A,,Clear,0,2013-01-18 13:55:00
6:35 AM,37.4,32.0,81,30.20,10.0,Calm,Calm,-,N/A,,Clear,0,2013-01-18 14:35:00
6:51 AM,39.2,32.0,75,30.20,15.0,Calm,Calm,-,N/A,,Clear,0,2013-01-18 14:51:00
6:55 AM,39.2,32.0,75,30.20,10.0,Calm,Calm,-,N/A,,Clear,0,2013-01-18 14:55:00
8:47 AM,42.8,-9999,N/A,30.23,8.0,Calm,Calm,-,N/A,,Clear,0,2013-01-18 16:47:00
9:53 AM,50.0,39.2,66,30.24,8.0,Calm,Calm,-,N/A,,Partly Cloudy,0,2013-01-18 17:53:00
10:57 AM,53.6,39.2,58,30.23,8.0,ENE,4.6,-,N/A,,Partly Cloudy,70,2013-01-18 18:57:00
11:49 AM,55.4,39.2,54,30.21,9.0,NE,4.6,-,N/A,,Partly Cloudy,50,2013-01-18 19:49:00
12:47 PM,59.0,37.4,45,30.18,8.0,Calm,Calm,-,N/A,,Partly Cloudy,0,2013-01-18 20:47:00
1:50 PM,60.8,35.6,39,30.16,8.0,Calm,Calm,-,N/A,,Partly Cloudy,0,2013-01-18 21:50:00
2:47 PM,62.6,35.6,37,30.15,8.0,Calm,Calm,-,N/A,,Partly Cloudy,0,2013-01-18 22:47:00
3:53 PM,62.6,35.6,37,30.14,10.0,Calm,Calm,-,N/A,,Partly Cloudy,0,2013-01-18 23:53:00
4:47 PM,59.0,44.6,59,30.15,10.0,Variable,4.6,-,N/A,,Scattered Clouds,0,2013-01-19 00:47:00
5:47 PM,57.2,39.2,51,30.15,10.0,Calm,Calm,-,N/A,,Scattered Clouds,0,2013-01-19 01:47:00
6:47 PM,53.6,39.2,58,30.16,10.0,Calm,Calm,-,N/A,,Scattered Clouds,0,2013-01-19 02:47:00
7:47 PM,50.0,37.4,62,30.16,10.0,Calm,Calm,-,N/A,,Clear,0,2013-01-19 03:47:00
8:47 PM,48.2,37.4,66,30.17,10.0,Calm,Calm,-,N/A,,Clear,0,2013-01-19 04:47:00
9:15 PM,46.4,37.4,71,30.17,10.0,Calm,Calm,-,N/A,,Clear,0,2013-01-19 05:15:00
9:35 PM,46.4,37.4,71,30.17,10.0,Calm,Calm,-,N/A,,Clear,0,2013-01-19 05:35:00
9:55 PM,46.4,35.6,66,30.18,5.0,Calm,Calm,-,N/A,,Haze,0,2013-01-19 05:55:00
10:15 PM,46.4,35.6,66,30.18,8.0,Calm,Calm,-,N/A,,Clear,0,2013-01-19 06:15:00
10:35 PM,46.4,35.6,66,30.18,10.0,Calm,Calm,-,N/A,,Clear,0,2013-01-19 06:35:00
10:55 PM,44.6,35.6,71,30.18,10.0,Calm,Calm,-,N/A,,Clear,0,2013-01-19 06:55:00
11:15 PM,44.6,35.6,71,30.18,10.0,Calm,Calm,-,N/A,,Clear,0,2013-01-19 07:15:00
11:35 PM,42.8,35.6,76,30.18,10.0,Calm,Calm,-,N/A,,Clear,0,2013-01-19 07:35:00
11:55 PM,44.6,35.6,71,30.18,9.0,Calm,Calm,-,N/A,,Clear,0,2013-01-19 07:55:00